Meteo Giornale » Osservazioni meteo Pakistan » Faisalabad Intl
ore: 23:00 - Osservazioni Meteo Faisalabad Intl
Lat. 31° 22' N Lon. 73° 0' E Alt. 185 metri s.l.m.
32 °C
Caligine
Temp. 24 Ore
28 °C
38 °C
Nord
0 Km/h
Dew point 26 °C
Umidità 70 %
Visibilità 4 Km
Il sole sorge alle ore 05:43
Il sole tramonta alle ore 18:32
| Data e Ora | Cielo e Fenomeni | T °C | DP °C | Um. % | Pres. hPa | Vis. km | Vento km/h | |
|---|---|---|---|---|---|---|---|---|
| Oggi h: 23:00 | Caligine | 32 | 26 | 70 | 1005 | 4 | N 0 | |
| Oggi h: 22:30 | Caligine | 32 | 26 | 70 | 1005 | 4 | N 0 | |
| Oggi h: 22:00 | Caligine | 32 | 26 | 70 | 1005 | 4 | S 7.4 | |
| Oggi h: 21:30 | Caligine | 32 | 25 | 66 | 1005 | 4 | S 7.4 | |
| Oggi h: 21:00 | Caligine | 33 | 25 | 62 | 1003 | 4 | S 7.4 | |
| Oggi h: 20:30 | Caligine | 33 | 25 | 62 | 1004 | 4 | S 7.4 | |
| Oggi h: 20:00 | Caligine | 33 | 25 | 62 | 1003 | 4 | S 7.4 | |
| Oggi h: 19:30 | Caligine | 34 | 25 | 59 | 1003 | 5 | S 11.1 | |
| Oggi h: 19:00 | Caligine | 34 | 25 | 59 | 1003 | 5 | S 11.1 | |
| Oggi h: 18:30 | Caligine | 35 | 25 | 56 | 1003 | 5 | S 7.4 | |
| Oggi h: 18:00 | Caligine | 36 | 24 | 50 | 1002 | 5 | S 7.4 | |
| Oggi h: 17:30 | Foschia | 37 | 24 | 47 | 1002 | 5 | S 7.4 | |
| Oggi h: 17:00 | Foschia | 37 | 24 | 47 | 1002 | 5 | S 7.4 | |
| Oggi h: 16:30 | Foschia | 37 | 24 | 47 | 1002 | 5 | S 11.1 | |
| Oggi h: 16:00 | Foschia | 37 | 24 | 47 | 1002 | 5 | S 7.4 | |
| Oggi h: 15:30 | Foschia | 37 | 24 | 47 | 1003 | 5 | S 7.4 | |
| Oggi h: 15:00 | Foschia | 38 | 23 | 42 | 1003 | 5 | SE 9.3 | |
| Oggi h: 14:30 | Foschia | 37 | 24 | 47 | 1003 | 5 | S 7.4 | |
| Oggi h: 14:00 | Foschia | 37 | 24 | 47 | 1003 | 5 | SE 7.4 | |
| Oggi h: 13:30 | Foschia | 37 | 24 | 47 | 1004 | 5 | S 7.4 | |
| Oggi h: 13:00 | Foschia | 37 | 24 | 47 | 1004 | 5 | S 7.4 | |
| Oggi h: 12:30 | Foschia | 37 | 24 | 47 | 1004 | 5 | S 7.4 | |
| Oggi h: 12:00 | Caligine | 35 | 24 | 53 | 1004 | 5 | SO 7.4 | |
| Oggi h: 11:30 | Caligine | 35 | 24 | 53 | 1004 | 5 | SO 7.4 | |
| Oggi h: 11:00 | Caligine | 35 | 24 | 53 | 1004 | 5 | SO 11.1 | |
| Oggi h: 10:30 | Caligine | 34 | 24 | 56 | 1004 | 5 | SO 7.4 | |
| Oggi h: 10:00 | Caligine | 32 | 24 | 62 | 1003 | 5 | SO 7.4 | |
| Oggi h: 09:30 | Caligine | 33 | 24 | 59 | 1004 | 5 | SO 7.4 | |
| Oggi h: 09:00 | Caligine | 32 | 24 | 62 | 1003 | 5 | SO 7.4 | |
| Oggi h: 08:30 | Caligine | 31 | 24 | 66 | 1003 | 5 | SO 7.4 | |
| Oggi h: 08:00 | Caligine | 30 | 24 | 70 | 1002 | 4 | S 7.4 | |
| Oggi h: 07:30 | Caligine | 30 | 25 | 74 | 1002 | 4 | S 11.1 | |
| Oggi h: 07:00 | Caligine | 29 | 26 | 83 | 1001 | 4 | S 7.4 | |
| Oggi h: 06:30 | Caligine | 28 | 26 | 88 | 1001 | 4 | N 3.7 | |
| Oggi h: 06:00 | Caligine | 28 | 26 | 88 | 1001 | 4 | N 3.7 | |
| Oggi h: 05:30 | Caligine | 29 | 26 | 83 | 1001 | 4 | SE 7.4 | |
| Oggi h: 05:00 | Caligine | 29 | 26 | 83 | 1001 | 4 | SE 7.4 | |
| Oggi h: 04:30 | Caligine | 29 | 26 | 83 | 1001 | 4 | SE 7.4 | |
| Oggi h: 04:00 | Caligine | 29 | 26 | 83 | 1001 | 4 | SE 7.4 | |
| Oggi h: 03:30 | Caligine | 30 | 25 | 74 | 1001 | 4 | SE 7.4 | |
| Oggi h: 03:00 | Caligine | 29 | 26 | 83 | 1001 | 4 | SE 7.4 | |
| Oggi h: 02:30 | Caligine | 30 | 25 | 74 | 1001 | 4 | SE 7.4 | |
| Oggi h: 02:00 | Caligine | 30 | 25 | 74 | 1001 | 4 | SE 7.4 | |
| Oggi h: 01:30 | Caligine | 30 | 25 | 74 | 1001 | 4 | E/SE 7.4 | |
| Oggi h: 01:00 | Caligine | 30 | 25 | 74 | 1002 | 4 | E/SE 7.4 | |
| Oggi h: 00:30 | Caligine | 30 | 25 | 74 | 1002 | 4 | N 0 | |
| Oggi h: 00:00 | Caligine | 30 | 25 | 74 | 1002 | 4 | N 0 | |



